Year,Month,Day,Hour,Minute,Value (Times are PST for temperature in C)
2009,04,29,00,00,11.50
2009,04,29,00,01,11.50
2009,04,29,00,02,11.40
2009,04,29,00,03,11.40
2009,04,29,00,04,11.40
2009,04,29,00,05,11.40
2009,04,29,00,06,11.40
2009,04,29,00,07,11.40
2009,04,29,00,08,11.40
2009,04,29,00,09,11.30
2009,04,29,00,10,11.30
2009,04,29,00,11,11.30
2009,04,29,00,12,11.30
2009,04,29,00,13,11.30
2009,04,29,00,14,11.30
2009,04,29,00,15,11.20
2009,04,29,00,16,11.20
2009,04,29,00,17,11.10
2009,04,29,00,18,11.10
2009,04,29,00,19,11.00
2009,04,29,00,20,11.00
2009,04,29,00,21,10.90
2009,04,29,00,22,10.90
2009,04,29,00,23,10.80
2009,04,29,00,24,10.70
2009,04,29,00,25,10.70
2009,04,29,00,26,10.60
2009,04,29,00,27,10.50
2009,04,29,00,28,10.50
2009,04,29,00,29,10.40
2009,04,29,00,30,10.30
2009,04,29,00,31,10.20
2009,04,29,00,32,10.20
2009,04,29,00,33,10.10
2009,04,29,00,34,10.10
2009,04,29,00,35,10.10
2009,04,29,00,36,10.00
2009,04,29,00,37,10.00
2009,04,29,00,38,10.00
2009,04,29,00,39,10.00
2009,04,29,00,40,10.00
2009,04,29,00,41,10.00
2009,04,29,00,42,9.90
2009,04,29,00,43,9.90
2009,04,29,00,44,9.80
2009,04,29,00,45,9.80
2009,04,29,00,46,9.80
2009,04,29,00,47,9.70
2009,04,29,00,48,9.70
2009,04,29,00,49,9.60
2009,04,29,00,50,9.50
2009,04,29,00,51,9.40
2009,04,29,00,52,9.40
2009,04,29,00,53,9.30
2009,04,29,00,54,9.20
2009,04,29,00,55,9.10
2009,04,29,00,56,8.90
2009,04,29,00,57,8.70
2009,04,29,00,58,8.60
2009,04,29,00,59,8.50
2009,04,29,01,00,8.40
2009,04,29,01,01,8.40
2009,04,29,01,02,8.40
2009,04,29,01,03,8.40
2009,04,29,01,04,8.30
2009,04,29,01,05,8.30
2009,04,29,01,06,8.30
2009,04,29,01,07,8.40
2009,04,29,01,08,8.40
2009,04,29,01,09,8.40
2009,04,29,01,10,8.40
2009,04,29,01,11,8.50
2009,04,29,01,12,8.50
2009,04,29,01,13,8.60
2009,04,29,01,14,8.60
2009,04,29,01,15,8.70
2009,04,29,01,16,8.70
2009,04,29,01,17,8.80
2009,04,29,01,18,8.90
2009,04,29,01,19,9.00
2009,04,29,01,20,9.00
2009,04,29,01,21,9.00
2009,04,29,01,22,8.90
2009,04,29,01,23,8.90
2009,04,29,01,24,8.80
2009,04,29,01,25,8.80
2009,04,29,01,26,8.70
2009,04,29,01,27,8.70
2009,04,29,01,28,8.70
2009,04,29,01,29,8.70
2009,04,29,01,30,8.70
2009,04,29,01,31,8.80
2009,04,29,01,32,8.80
2009,04,29,01,33,8.80
2009,04,29,01,34,8.80
2009,04,29,01,35,8.80
2009,04,29,01,36,8.70
2009,04,29,01,37,8.70
2009,04,29,01,38,8.60
2009,04,29,01,39,8.60
2009,04,29,01,40,8.50
2009,04,29,01,41,8.40
2009,04,29,01,42,8.40
2009,04,29,01,43,8.30
2009,04,29,01,44,8.30
2009,04,29,01,45,8.30
2009,04,29,01,46,8.20
2009,04,29,01,47,8.20
2009,04,29,01,48,8.20
2009,04,29,01,49,8.10
2009,04,29,01,50,8.10
2009,04,29,01,51,8.10
2009,04,29,01,52,8.10
2009,04,29,01,53,8.00
2009,04,29,01,54,7.90
2009,04,29,01,55,7.90
2009,04,29,01,56,7.90
2009,04,29,01,57,7.80
2009,04,29,01,58,7.80
2009,04,29,01,59,7.80
2009,04,29,02,00,7.80
2009,04,29,02,01,7.80
2009,04,29,02,02,7.70
2009,04,29,02,03,7.70
2009,04,29,02,04,7.70
2009,04,29,02,05,7.70
2009,04,29,02,06,7.70
2009,04,29,02,07,7.70
2009,04,29,02,08,7.70
2009,04,29,02,09,7.60
2009,04,29,02,10,7.60
2009,04,29,02,11,7.60
2009,04,29,02,12,7.60
2009,04,29,02,13,7.60
2009,04,29,02,14,7.50
2009,04,29,02,15,7.50
2009,04,29,02,16,7.40
2009,04,29,02,17,7.40
2009,04,29,02,18,7.40
2009,04,29,02,19,7.40
2009,04,29,02,20,7.30
2009,04,29,02,21,7.30
2009,04,29,02,22,7.30
2009,04,29,02,23,7.30
2009,04,29,02,24,7.30
2009,04,29,02,25,7.30
2009,04,29,02,26,7.30
2009,04,29,02,27,7.30
2009,04,29,02,28,7.30
2009,04,29,02,29,7.30
2009,04,29,02,30,7.20
2009,04,29,02,31,7.20
2009,04,29,02,32,7.20
2009,04,29,02,33,7.10
2009,04,29,02,34,7.10
2009,04,29,02,35,7.10
2009,04,29,02,36,7.00
2009,04,29,02,37,7.00
2009,04,29,02,38,6.90
2009,04,29,02,39,6.90
2009,04,29,02,40,6.90
2009,04,29,02,41,6.90
2009,04,29,02,42,6.90
2009,04,29,02,43,6.90
2009,04,29,02,44,6.90
2009,04,29,02,45,6.90
2009,04,29,02,46,6.90
2009,04,29,02,47,6.90
2009,04,29,02,48,6.90
2009,04,29,02,49,6.90
2009,04,29,02,50,6.90
2009,04,29,02,51,6.90
2009,04,29,02,52,6.90
2009,04,29,02,53,6.90
2009,04,29,02,54,6.90
2009,04,29,02,55,6.90
2009,04,29,02,56,6.90
2009,04,29,02,57,6.90
2009,04,29,02,58,6.90
2009,04,29,02,59,6.90
2009,04,29,03,00,6.80
2009,04,29,03,01,6.80
2009,04,29,03,02,6.80
2009,04,29,03,03,6.80
2009,04,29,03,04,6.80
2009,04,29,03,05,6.80
2009,04,29,03,06,6.80
2009,04,29,03,07,6.80
2009,04,29,03,08,6.80
2009,04,29,03,09,6.90
2009,04,29,03,10,6.90
2009,04,29,03,11,6.90
2009,04,29,03,12,7.00
2009,04,29,03,13,7.00
2009,04,29,03,14,7.00
2009,04,29,03,15,7.10
2009,04,29,03,16,7.10
2009,04,29,03,17,7.10
2009,04,29,03,18,7.10
2009,04,29,03,19,7.00
2009,04,29,03,20,7.00
2009,04,29,03,21,6.90
2009,04,29,03,22,6.80
2009,04,29,03,23,6.80
2009,04,29,03,24,6.70
2009,04,29,03,25,6.70
2009,04,29,03,26,6.60
2009,04,29,03,27,6.60
2009,04,29,03,28,6.50
2009,04,29,03,29,6.50
2009,04,29,03,30,6.60
2009,04,29,03,31,6.60
2009,04,29,03,32,6.60
2009,04,29,03,33,6.60
2009,04,29,03,34,6.70
2009,04,29,03,35,6.70
2009,04,29,03,36,6.80
2009,04,29,03,37,6.80
2009,04,29,03,38,6.90
2009,04,29,03,39,6.90
2009,04,29,03,40,7.00
2009,04,29,03,41,7.00
2009,04,29,03,42,7.00
2009,04,29,03,43,7.10
2009,04,29,03,44,7.10
2009,04,29,03,45,7.10
2009,04,29,03,46,7.20
2009,04,29,03,47,7.20
2009,04,29,03,48,7.20
2009,04,29,03,49,7.30
2009,04,29,03,50,7.30
2009,04,29,03,51,7.30
2009,04,29,03,52,7.30
2009,04,29,03,53,7.30
2009,04,29,03,54,7.30
2009,04,29,03,55,7.20
2009,04,29,03,56,7.20
2009,04,29,03,57,7.20
2009,04,29,03,58,7.10
2009,04,29,03,59,7.10
2009,04,29,04,00,7.00
2009,04,29,04,01,7.00
2009,04,29,04,02,6.90
2009,04,29,04,03,6.90
2009,04,29,04,04,6.90
2009,04,29,04,05,6.80
2009,04,29,04,06,6.80
2009,04,29,04,07,6.70
2009,04,29,04,08,6.70
2009,04,29,04,09,6.60
2009,04,29,04,10,6.60
2009,04,29,04,11,6.50
2009,04,29,04,12,6.50
2009,04,29,04,13,6.40
2009,04,29,04,14,6.40
2009,04,29,04,15,6.30
2009,04,29,04,16,6.30
2009,04,29,04,17,6.30
2009,04,29,04,18,6.30
2009,04,29,04,19,6.30
2009,04,29,04,20,6.30
2009,04,29,04,21,6.30
2009,04,29,04,22,6.20
2009,04,29,04,23,6.20
2009,04,29,04,24,6.20
2009,04,29,04,25,6.10
2009,04,29,04,26,6.10
2009,04,29,04,27,6.10
2009,04,29,04,28,6.10
2009,04,29,04,29,6.10
2009,04,29,04,30,6.10
2009,04,29,04,31,6.10
2009,04,29,04,32,6.10
2009,04,29,04,33,6.10
2009,04,29,04,34,6.10
2009,04,29,04,35,6.20
2009,04,29,04,36,6.20
2009,04,29,04,37,6.10
2009,04,29,04,38,6.10
2009,04,29,04,39,6.10
2009,04,29,04,40,6.10
2009,04,29,04,41,6.00
2009,04,29,04,42,6.00
2009,04,29,04,43,6.00
2009,04,29,04,44,6.00
2009,04,29,04,45,5.90
2009,04,29,04,46,5.90
2009,04,29,04,47,5.90
2009,04,29,04,48,5.90
2009,04,29,04,49,5.80
2009,04,29,04,50,5.80
2009,04,29,04,51,5.80
2009,04,29,04,52,5.80
2009,04,29,04,53,5.80
2009,04,29,04,54,5.80
2009,04,29,04,55,5.80
2009,04,29,04,56,5.80
2009,04,29,04,57,5.80
2009,04,29,04,58,5.80
2009,04,29,04,59,5.80
2009,04,29,05,00,5.80
2009,04,29,05,01,5.80
2009,04,29,05,02,5.80
2009,04,29,05,03,5.70
2009,04,29,05,04,5.70
2009,04,29,05,05,5.70
2009,04,29,05,06,5.70
2009,04,29,05,07,5.70
2009,04,29,05,08,5.60
2009,04,29,05,09,5.60
2009,04,29,05,10,5.50
2009,04,29,05,11,5.50
2009,04,29,05,12,5.50
2009,04,29,05,13,5.40
2009,04,29,05,14,5.40
2009,04,29,05,15,5.40
2009,04,29,05,16,5.40
2009,04,29,05,17,5.40
2009,04,29,05,18,5.40
2009,04,29,05,19,5.40
2009,04,29,05,20,5.40
2009,04,29,05,21,5.40
2009,04,29,05,22,5.40
2009,04,29,05,23,5.40
2009,04,29,05,24,5.40
2009,04,29,05,25,5.30
2009,04,29,05,26,5.30
2009,04,29,05,27,5.30
2009,04,29,05,28,5.30
2009,04,29,05,29,5.30
2009,04,29,05,30,5.30
2009,04,29,05,31,5.30
2009,04,29,05,32,5.20
2009,04,29,05,33,5.20
2009,04,29,05,34,5.20
2009,04,29,05,35,5.20
2009,04,29,05,36,5.20
2009,04,29,05,37,5.20
2009,04,29,05,38,5.20
2009,04,29,05,39,5.20
2009,04,29,05,40,5.20
2009,04,29,05,41,5.20
2009,04,29,05,42,5.20
2009,04,29,05,43,5.20
2009,04,29,05,44,5.20
2009,04,29,05,45,5.20
2009,04,29,05,46,5.20
2009,04,29,05,47,5.20
2009,04,29,05,48,5.20
2009,04,29,05,49,5.20
2009,04,29,05,50,5.10
2009,04,29,05,51,5.10
2009,04,29,05,52,5.10
2009,04,29,05,53,5.10
2009,04,29,05,54,5.00
2009,04,29,05,55,5.00
2009,04,29,05,56,4.90
2009,04,29,05,57,4.90
2009,04,29,05,58,4.90
2009,04,29,05,59,4.90
2009,04,29,06,00,5.00
2009,04,29,06,01,5.00
2009,04,29,06,02,5.00
2009,04,29,06,03,5.10
2009,04,29,06,04,5.10
2009,04,29,06,05,5.10
2009,04,29,06,06,5.10
2009,04,29,06,07,5.10
2009,04,29,06,08,5.20
2009,04,29,06,09,5.20
2009,04,29,06,10,5.20
2009,04,29,06,11,5.20
2009,04,29,06,12,5.20
2009,04,29,06,13,5.30
2009,04,29,06,14,5.30
2009,04,29,06,15,5.30
2009,04,29,06,16,5.30
2009,04,29,06,17,5.30
2009,04,29,06,18,5.30
2009,04,29,06,19,5.30
2009,04,29,06,20,5.30
2009,04,29,06,21,5.30
2009,04,29,06,22,5.30
2009,04,29,06,23,5.30
2009,04,29,06,24,5.30
2009,04,29,06,25,5.30
2009,04,29,06,26,5.30
2009,04,29,06,27,5.30
2009,04,29,06,28,5.30
2009,04,29,06,29,5.30
2009,04,29,06,30,5.30
2009,04,29,06,31,5.30
2009,04,29,06,32,5.30
2009,04,29,06,33,5.30
2009,04,29,06,34,5.30
2009,04,29,06,35,5.30
2009,04,29,06,36,5.40
2009,04,29,06,37,5.40
2009,04,29,06,38,5.40
2009,04,29,06,39,5.40
2009,04,29,06,40,5.40
2009,04,29,06,41,5.40
2009,04,29,06,42,5.40
2009,04,29,06,43,5.40
2009,04,29,06,44,5.50
2009,04,29,06,45,5.50
2009,04,29,06,46,5.50
2009,04,29,06,47,5.60
2009,04,29,06,48,5.60
2009,04,29,06,49,5.60
2009,04,29,06,50,5.60
2009,04,29,06,51,5.60
2009,04,29,06,52,5.60
2009,04,29,06,53,5.60
2009,04,29,06,54,5.60
2009,04,29,06,55,5.70
2009,04,29,06,56,5.70
2009,04,29,06,57,5.70
2009,04,29,06,58,5.70
2009,04,29,06,59,5.70
2009,04,29,07,00,5.70
2009,04,29,07,01,5.70
2009,04,29,07,02,5.80
2009,04,29,07,03,5.80
2009,04,29,07,04,5.80
2009,04,29,07,05,5.80
2009,04,29,07,06,5.80
2009,04,29,07,07,5.80
2009,04,29,07,08,5.80
2009,04,29,07,09,5.80
2009,04,29,07,10,5.80
2009,04,29,07,11,5.80
2009,04,29,07,12,5.80
2009,04,29,07,13,5.80
2009,04,29,07,14,5.80
2009,04,29,07,15,5.90
2009,04,29,07,16,5.90
2009,04,29,07,17,5.90
2009,04,29,07,18,6.00
2009,04,29,07,19,6.00
2009,04,29,07,20,6.10
2009,04,29,07,21,6.10
2009,04,29,07,22,6.10
2009,04,29,07,23,6.20
2009,04,29,07,24,6.20
2009,04,29,07,25,6.20
2009,04,29,07,26,6.20
2009,04,29,07,27,6.30
2009,04,29,07,28,6.30
2009,04,29,07,29,6.30
2009,04,29,07,30,6.30
2009,04,29,07,31,6.40
2009,04,29,07,32,6.40
2009,04,29,07,33,6.50
2009,04,29,07,34,6.50
2009,04,29,07,35,6.60
2009,04,29,07,36,6.60
2009,04,29,07,37,6.70
2009,04,29,07,38,6.70
2009,04,29,07,39,6.70
2009,04,29,07,40,6.70
2009,04,29,07,41,6.80
2009,04,29,07,42,6.80
2009,04,29,07,43,6.80
2009,04,29,07,44,6.80
2009,04,29,07,45,6.90
2009,04,29,07,46,6.90
2009,04,29,07,47,6.90
2009,04,29,07,48,7.00
2009,04,29,07,49,7.00
2009,04,29,07,50,7.10
2009,04,29,07,51,7.10
2009,04,29,07,52,7.20
2009,04,29,07,53,7.20
2009,04,29,07,54,7.30
2009,04,29,07,55,7.30
2009,04,29,07,56,7.40
2009,04,29,07,57,7.50
2009,04,29,07,58,7.60
2009,04,29,07,59,7.60
2009,04,29,08,00,7.70
2009,04,29,08,01,7.80
2009,04,29,08,02,7.80
2009,04,29,08,03,7.80
2009,04,29,08,04,7.90
2009,04,29,08,05,7.90
2009,04,29,08,06,8.00
2009,04,29,08,07,8.10
2009,04,29,08,08,8.20
2009,04,29,08,09,8.20
2009,04,29,08,10,8.30
2009,04,29,08,11,8.40
2009,04,29,08,12,8.40
2009,04,29,08,13,8.50
2009,04,29,08,14,8.60
2009,04,29,08,15,8.70
2009,04,29,08,16,8.70
2009,04,29,08,17,8.80
2009,04,29,08,18,8.90
2009,04,29,08,19,9.00
2009,04,29,08,20,9.20
2009,04,29,08,21,9.30
2009,04,29,08,22,9.40
2009,04,29,08,23,9.50
2009,04,29,08,24,9.60
2009,04,29,08,25,9.70
2009,04,29,08,26,9.80
2009,04,29,08,27,9.90
2009,04,29,08,28,10.00
2009,04,29,08,29,10.20
2009,04,29,08,30,10.20
2009,04,29,08,31,10.30
2009,04,29,08,32,10.40
2009,04,29,08,33,10.60
2009,04,29,08,34,10.70
2009,04,29,08,35,10.80
2009,04,29,08,36,10.90
2009,04,29,08,37,10.90
2009,04,29,08,38,11.00
2009,04,29,08,39,11.10
2009,04,29,08,40,11.10
2009,04,29,08,41,11.10
2009,04,29,08,42,11.10
2009,04,29,08,43,11.10
2009,04,29,08,44,11.20
2009,04,29,08,45,11.20
2009,04,29,08,46,11.20
2009,04,29,08,47,11.20
2009,04,29,08,48,11.30
2009,04,29,08,49,11.30
2009,04,29,08,50,11.30
2009,04,29,08,51,11.40
2009,04,29,08,52,11.40
2009,04,29,08,53,11.40
2009,04,29,08,54,11.50
2009,04,29,08,55,11.50
2009,04,29,08,56,11.60
2009,04,29,08,57,11.60
2009,04,29,08,58,11.60
2009,04,29,08,59,11.70
2009,04,29,09,00,11.70
2009,04,29,09,01,11.70
2009,04,29,09,02,11.70
2009,04,29,09,03,11.80
2009,04,29,09,04,11.80
2009,04,29,09,05,11.80
2009,04,29,09,06,11.80
2009,04,29,09,07,11.80
2009,04,29,09,08,11.80
2009,04,29,09,09,11.80
2009,04,29,09,10,11.80
2009,04,29,09,11,11.80
2009,04,29,09,12,11.90
2009,04,29,09,13,11.90
2009,04,29,09,14,11.90
2009,04,29,09,15,11.90
2009,04,29,09,16,11.90
2009,04,29,09,17,11.90
2009,04,29,09,18,12.00
2009,04,29,09,19,12.00
2009,04,29,09,20,12.00
2009,04,29,09,21,12.00
2009,04,29,09,22,12.00
2009,04,29,09,23,12.00
2009,04,29,09,24,12.10
2009,04,29,09,25,12.10
2009,04,29,09,26,12.10
2009,04,29,09,27,12.10
2009,04,29,09,28,12.10
2009,04,29,09,29,12.20
2009,04,29,09,30,12.20
2009,04,29,09,31,12.20
2009,04,29,09,32,12.10
2009,04,29,09,33,12.10
2009,04,29,09,34,12.10
2009,04,29,09,35,12.10
2009,04,29,09,36,12.10
2009,04,29,09,37,12.00
2009,04,29,09,38,12.00
2009,04,29,09,39,12.00
2009,04,29,09,40,12.00
2009,04,29,09,41,12.10
2009,04,29,09,42,12.10
2009,04,29,09,43,12.10
2009,04,29,09,44,12.10
2009,04,29,09,45,12.20
2009,04,29,09,46,12.20
2009,04,29,09,47,12.20
2009,04,29,09,48,12.30
2009,04,29,09,49,12.30
2009,04,29,09,50,12.30
2009,04,29,09,51,12.40
2009,04,29,09,52,12.40
2009,04,29,09,53,12.50
2009,04,29,09,54,12.60
2009,04,29,09,55,12.60
2009,04,29,09,56,12.70
2009,04,29,09,57,12.80
2009,04,29,09,58,12.90
2009,04,29,09,59,12.90
2009,04,29,10,00,13.00
2009,04,29,10,01,13.10
2009,04,29,10,02,13.10
2009,04,29,10,03,13.10
2009,04,29,10,04,13.10
2009,04,29,10,05,13.10
2009,04,29,10,06,13.10
2009,04,29,10,07,13.00
2009,04,29,10,08,12.90
2009,04,29,10,09,12.80
2009,04,29,10,10,12.80
2009,04,29,10,11,12.80
2009,04,29,10,12,12.80
2009,04,29,10,13,12.80
2009,04,29,10,14,12.80
2009,04,29,10,15,12.80
2009,04,29,10,16,12.80
2009,04,29,10,17,12.90
2009,04,29,10,18,12.90
2009,04,29,10,19,13.00
2009,04,29,10,20,13.10
2009,04,29,10,21,13.10
2009,04,29,10,22,13.20
2009,04,29,10,23,13.30
2009,04,29,10,24,13.30
2009,04,29,10,25,13.40
2009,04,29,10,26,13.50
2009,04,29,10,27,13.50
2009,04,29,10,28,13.50
2009,04,29,10,29,13.60
2009,04,29,10,30,13.60
2009,04,29,10,31,13.70
2009,04,29,10,32,13.70
2009,04,29,10,33,13.70
2009,04,29,10,34,13.80
2009,04,29,10,35,13.80
2009,04,29,10,36,13.80
2009,04,29,10,37,13.80
2009,04,29,10,38,13.80
2009,04,29,10,39,13.80
2009,04,29,10,40,13.80
2009,04,29,10,41,13.80
2009,04,29,10,42,13.90
2009,04,29,10,43,13.90
2009,04,29,10,44,14.00
2009,04,29,10,45,14.00
2009,04,29,10,46,14.00
2009,04,29,10,47,14.00
2009,04,29,10,48,14.10
2009,04,29,10,49,14.10
2009,04,29,10,50,14.10
2009,04,29,10,51,14.10
2009,04,29,10,52,14.10
2009,04,29,10,53,14.20
2009,04,29,10,54,14.20
2009,04,29,10,55,14.20
2009,04,29,10,56,14.10
2009,04,29,10,57,14.10
2009,04,29,10,58,14.10
2009,04,29,10,59,14.10
2009,04,29,11,00,14.20
2009,04,29,11,01,14.20
2009,04,29,11,02,14.20
2009,04,29,11,03,14.20
2009,04,29,11,04,14.20
2009,04,29,11,05,14.10
2009,04,29,11,06,14.10
2009,04,29,11,07,14.10
2009,04,29,11,08,14.10
2009,04,29,11,09,14.00
2009,04,29,11,10,14.00
2009,04,29,11,11,13.90
2009,04,29,11,12,13.90
2009,04,29,11,13,14.00
2009,04,29,11,14,14.00
2009,04,29,11,15,14.10
2009,04,29,11,16,14.00
2009,04,29,11,17,14.00
2009,04,29,11,18,14.00
2009,04,29,11,19,14.10
2009,04,29,11,20,14.10
2009,04,29,11,21,14.10
2009,04,29,11,22,14.10
2009,04,29,11,23,14.10
2009,04,29,11,24,14.00
2009,04,29,11,25,13.90
2009,04,29,11,26,13.90
2009,04,29,11,27,13.80
2009,04,29,11,28,13.80
2009,04,29,11,29,13.80
2009,04,29,11,30,13.80
2009,04,29,11,31,13.80
2009,04,29,11,32,13.70
2009,04,29,11,33,13.70
2009,04,29,11,34,13.70
2009,04,29,11,35,13.70
2009,04,29,11,36,13.70
2009,04,29,11,37,13.70
2009,04,29,11,38,13.70
2009,04,29,11,39,13.70
2009,04,29,11,40,13.80
2009,04,29,11,41,13.80
2009,04,29,11,42,13.80
2009,04,29,11,43,13.90
2009,04,29,11,44,14.10
2009,04,29,11,45,14.20
2009,04,29,11,46,14.20
2009,04,29,11,47,14.20
2009,04,29,11,48,14.30
2009,04,29,11,49,14.30
2009,04,29,11,50,14.30
2009,04,29,11,51,14.30
2009,04,29,11,52,14.30
2009,04,29,11,53,14.30
2009,04,29,11,54,14.30
2009,04,29,11,55,14.30
2009,04,29,11,56,14.30
2009,04,29,11,57,14.40
2009,04,29,11,58,14.50
2009,04,29,11,59,14.60
2009,04,29,12,00,14.70
2009,04,29,12,01,14.70
2009,04,29,12,02,14.80
2009,04,29,12,03,14.80
2009,04,29,12,04,14.70
2009,04,29,12,05,14.70
2009,04,29,12,06,14.60
2009,04,29,12,07,14.50
2009,04,29,12,08,14.40
2009,04,29,12,09,14.30
2009,04,29,12,10,14.20
2009,04,29,12,11,14.30
2009,04,29,12,12,14.30
2009,04,29,12,13,14.30
2009,04,29,12,14,14.40
2009,04,29,12,15,14.40
2009,04,29,12,16,14.40
2009,04,29,12,17,14.30
2009,04,29,12,18,14.30
2009,04,29,12,19,14.30
2009,04,29,12,20,14.40
2009,04,29,12,21,14.40
2009,04,29,12,22,14.40
2009,04,29,12,23,14.40
2009,04,29,12,24,14.40
2009,04,29,12,25,14.40
2009,04,29,12,26,14.40
2009,04,29,12,27,14.40
2009,04,29,12,28,14.40
2009,04,29,12,29,14.40
2009,04,29,12,30,14.40
2009,04,29,12,31,14.40
2009,04,29,12,32,14.30
2009,04,29,12,33,14.20
2009,04,29,12,34,14.20
2009,04,29,12,35,14.20
2009,04,29,12,36,14.30
2009,04,29,12,37,14.30
2009,04,29,12,38,14.30
2009,04,29,12,39,14.40
2009,04,29,12,40,14.50
2009,04,29,12,41,14.50
2009,04,29,12,42,14.50
2009,04,29,12,43,14.50
2009,04,29,12,44,14.50
2009,04,29,12,45,14.60
2009,04,29,12,46,14.60
2009,04,29,12,47,14.60
2009,04,29,12,48,14.50
2009,04,29,12,49,14.50
2009,04,29,12,50,14.50
2009,04,29,12,51,14.40
2009,04,29,12,52,14.50
2009,04,29,12,53,14.50
2009,04,29,12,54,14.50
2009,04,29,12,55,14.60
2009,04,29,12,56,14.60
2009,04,29,12,57,14.60
2009,04,29,12,58,14.60
2009,04,29,12,59,14.60
2009,04,29,13,00,14.70
2009,04,29,13,01,14.70
2009,04,29,13,02,14.80
2009,04,29,13,03,14.80
2009,04,29,13,04,14.80
2009,04,29,13,05,14.80
2009,04,29,13,06,14.90
2009,04,29,13,07,14.90
2009,04,29,13,08,14.90
2009,04,29,13,09,14.90
2009,04,29,13,10,14.90
2009,04,29,13,11,14.90
2009,04,29,13,12,14.90
2009,04,29,13,13,14.90
2009,04,29,13,14,14.90
2009,04,29,13,15,14.90
2009,04,29,13,16,14.90
2009,04,29,13,17,14.90
2009,04,29,13,18,14.90
2009,04,29,13,19,14.80
2009,04,29,13,20,14.80
2009,04,29,13,21,14.90
2009,04,29,13,22,15.00
2009,04,29,13,23,15.00
2009,04,29,13,24,15.00
2009,04,29,13,25,15.00
2009,04,29,13,26,14.90
2009,04,29,13,27,14.90
2009,04,29,13,28,14.90
2009,04,29,13,29,15.00
2009,04,29,13,30,15.10
2009,04,29,13,31,15.10
2009,04,29,13,32,15.20
2009,04,29,13,33,15.20
2009,04,29,13,34,15.30
2009,04,29,13,35,15.40
2009,04,29,13,36,15.30
2009,04,29,13,37,15.40
2009,04,29,13,38,15.40
2009,04,29,13,39,15.40
2009,04,29,13,40,15.40
2009,04,29,13,41,15.30
2009,04,29,13,42,15.30
2009,04,29,13,43,15.20
2009,04,29,13,44,15.20
2009,04,29,13,45,15.20
2009,04,29,13,46,15.20
2009,04,29,13,47,15.30
2009,04,29,13,48,15.30
2009,04,29,13,49,15.30
2009,04,29,13,50,15.30
2009,04,29,13,51,15.30
2009,04,29,13,52,15.30
2009,04,29,13,53,15.30
2009,04,29,13,54,15.40
2009,04,29,13,55,15.50
2009,04,29,13,56,15.60
2009,04,29,13,57,15.60
2009,04,29,13,58,15.50
2009,04,29,13,59,15.50
2009,04,29,14,00,15.50
2009,04,29,14,01,15.50
2009,04,29,14,02,15.60
2009,04,29,14,03,15.60
2009,04,29,14,04,15.60
2009,04,29,14,05,15.60
2009,04,29,14,06,15.60
2009,04,29,14,07,15.60
2009,04,29,14,08,15.60
2009,04,29,14,09,15.60
2009,04,29,14,10,15.60
2009,04,29,14,11,15.70
2009,04,29,14,12,15.70
2009,04,29,14,13,15.70
2009,04,29,14,14,15.70
2009,04,29,14,15,15.70
2009,04,29,14,16,15.70
2009,04,29,14,17,15.80
2009,04,29,14,18,15.80
2009,04,29,14,19,15.80
2009,04,29,14,20,15.80
2009,04,29,14,21,15.80
2009,04,29,14,22,15.80
2009,04,29,14,23,15.80
2009,04,29,14,24,15.80
2009,04,29,14,25,15.80
2009,04,29,14,26,15.80
2009,04,29,14,27,15.90
2009,04,29,14,28,15.90
2009,04,29,14,29,16.00
2009,04,29,14,30,16.00
2009,04,29,14,31,16.00
2009,04,29,14,32,15.90
2009,04,29,14,33,15.90
2009,04,29,14,34,15.90
2009,04,29,14,35,15.90
2009,04,29,14,36,15.90
2009,04,29,14,37,15.90
2009,04,29,14,38,15.90
2009,04,29,14,39,15.90
2009,04,29,14,40,15.90
2009,04,29,14,41,15.90
2009,04,29,14,42,15.90
2009,04,29,14,43,15.80
2009,04,29,14,44,15.80
2009,04,29,14,45,15.80
2009,04,29,14,46,15.70
2009,04,29,14,47,15.70
2009,04,29,14,48,15.80
2009,04,29,14,49,15.80
2009,04,29,14,50,15.80
2009,04,29,14,51,15.80
2009,04,29,14,52,15.80
2009,04,29,14,53,15.90
2009,04,29,14,54,16.00
2009,04,29,14,55,16.00
2009,04,29,14,56,16.00
2009,04,29,14,57,16.10
2009,04,29,14,58,16.10
2009,04,29,14,59,16.00
2009,04,29,15,00,15.90
2009,04,29,15,01,15.90
2009,04,29,15,02,16.00
2009,04,29,15,03,15.90
2009,04,29,15,04,15.90
2009,04,29,15,05,15.80
2009,04,29,15,06,15.80
2009,04,29,15,07,15.80
2009,04,29,15,08,15.90
2009,04,29,15,09,15.90
2009,04,29,15,10,16.00
2009,04,29,15,11,16.00
2009,04,29,15,12,16.00
2009,04,29,15,13,15.90
2009,04,29,15,14,15.70
2009,04,29,15,15,15.70
2009,04,29,15,16,15.60
2009,04,29,15,17,15.60
2009,04,29,15,18,15.50
2009,04,29,15,19,15.50
2009,04,29,15,20,15.60
2009,04,29,15,21,15.60
2009,04,29,15,22,15.60
2009,04,29,15,23,15.70
2009,04,29,15,24,15.70
2009,04,29,15,25,15.70
2009,04,29,15,26,15.80
2009,04,29,15,27,15.80
2009,04,29,15,28,15.90
2009,04,29,15,29,15.90
2009,04,29,15,30,15.90
2009,04,29,15,31,15.90
2009,04,29,15,32,15.90
2009,04,29,15,33,16.00
2009,04,29,15,34,16.10
2009,04,29,15,35,16.10
2009,04,29,15,36,16.10
2009,04,29,15,37,16.20
2009,04,29,15,38,16.20
2009,04,29,15,39,16.00
2009,04,29,15,40,15.90
2009,04,29,15,41,15.90
2009,04,29,15,42,16.00
2009,04,29,15,43,16.00
2009,04,29,15,44,16.10
2009,04,29,15,45,16.10
2009,04,29,15,46,16.10
2009,04,29,15,47,16.10
2009,04,29,15,48,16.00
2009,04,29,15,49,16.10
2009,04,29,15,50,16.00
2009,04,29,15,51,16.00
2009,04,29,15,52,16.10
2009,04,29,15,53,16.10
2009,04,29,15,54,16.10
2009,04,29,15,55,16.10
2009,04,29,15,56,16.00
2009,04,29,15,57,15.90
2009,04,29,15,58,15.80
2009,04,29,15,59,15.70
2009,04,29,16,00,15.70
2009,04,29,16,01,15.70
2009,04,29,16,02,15.60
2009,04,29,16,03,15.60
2009,04,29,16,04,15.60
2009,04,29,16,05,15.70
2009,04,29,16,06,15.70
2009,04,29,16,07,15.80
2009,04,29,16,08,15.80
2009,04,29,16,09,15.90
2009,04,29,16,10,15.90
2009,04,29,16,11,15.90
2009,04,29,16,12,15.90
2009,04,29,16,13,16.00
2009,04,29,16,14,16.00
2009,04,29,16,15,16.10
2009,04,29,16,16,16.20
2009,04,29,16,17,16.20
2009,04,29,16,18,16.20
2009,04,29,16,19,16.20
2009,04,29,16,20,16.20
2009,04,29,16,21,16.20
2009,04,29,16,22,16.20
2009,04,29,16,23,16.20
2009,04,29,16,24,16.20
2009,04,29,16,25,16.20
2009,04,29,16,26,16.20
2009,04,29,16,27,16.30
2009,04,29,16,28,16.30
2009,04,29,16,29,16.30
2009,04,29,16,30,16.20
2009,04,29,16,31,16.20
2009,04,29,16,32,16.10
2009,04,29,16,33,16.10
2009,04,29,16,34,16.00
2009,04,29,16,35,16.00
2009,04,29,16,36,16.00
2009,04,29,16,37,16.00
2009,04,29,16,38,15.90
2009,04,29,16,39,15.90
2009,04,29,16,40,15.80
2009,04,29,16,41,15.80
2009,04,29,16,42,15.80
2009,04,29,16,43,15.70
2009,04,29,16,44,15.70
2009,04,29,16,45,15.70
2009,04,29,16,46,15.70
2009,04,29,16,47,15.80
2009,04,29,16,48,15.80
2009,04,29,16,49,15.80
2009,04,29,16,50,15.80
2009,04,29,16,51,15.70
2009,04,29,16,52,15.70
2009,04,29,16,53,15.60
2009,04,29,16,54,15.60
2009,04,29,16,55,15.60
2009,04,29,16,56,15.60
2009,04,29,16,57,15.60
2009,04,29,16,58,15.60
2009,04,29,16,59,15.60
2009,04,29,17,00,15.60
2009,04,29,17,01,15.50
2009,04,29,17,02,15.50
2009,04,29,17,03,15.50
2009,04,29,17,04,15.50
2009,04,29,17,05,15.50
2009,04,29,17,06,15.50
2009,04,29,17,07,15.60
2009,04,29,17,08,15.60
2009,04,29,17,09,15.60
2009,04,29,17,10,15.70
2009,04,29,17,11,15.70
2009,04,29,17,12,15.70
2009,04,29,17,13,15.70
2009,04,29,17,14,15.80
2009,04,29,17,15,15.80
2009,04,29,17,16,15.70
2009,04,29,17,17,15.80
2009,04,29,17,18,15.70
2009,04,29,17,19,15.70
2009,04,29,17,20,15.70
2009,04,29,17,21,15.70
2009,04,29,17,22,15.70
2009,04,29,17,23,15.70
2009,04,29,17,24,15.70
2009,04,29,17,25,15.80
2009,04,29,17,26,15.80
2009,04,29,17,27,15.80
2009,04,29,17,28,15.80
2009,04,29,17,29,15.80
2009,04,29,17,30,15.80
2009,04,29,17,31,15.90
2009,04,29,17,32,15.90
2009,04,29,17,33,15.90
2009,04,29,17,34,15.90
2009,04,29,17,35,15.90
2009,04,29,17,36,16.00
2009,04,29,17,37,16.00
2009,04,29,17,38,16.00
2009,04,29,17,39,16.10